SCP
0 0 -0 -0 -0 -0 -1 -1 -2 -3 -3 -2 -1 -0 -0 -0 -0 -0 -0 0 -0 -0 -0 -0 0 0 0 0 0 0 0 0 0
0 0 0 -0 -0 -0 -1 -1 -2 -3 -5 -4 -3 -2 -0 -0 0 0 -0 0 0 -0 -0 -0 -0 0 0 0 0 0 0 0 0
0 0 0 0 -0 -0 -1 -1 -1 -2 -6 -6 -5 -3 -2 -1 -0 -0 -0 -0 -0 -0 -0 0 -0 0 0 0 0 0 0 0 0
0 0 -0 -0 -0 0 -0 -1 -1 -1 -4 -5 -4 -3 -2 -1 -1 -0 -0 -0 -0 0 -0 -0 -0 -0 0 0 0 0 0 0 0
0 0 -0 0 0 0 -0 -1 -1 -1 -3 -4 -4 -3 -3 -2 -1 -1 -0 -0 -0 -0 -0 -1 -1 -0 -0 0 0 1 1 0 0
0 0 0 0 0 0 -0 -0 -0 -0 -3 -4 -3 -2 -2 -2 -1 -1 -1 -1 -0 -0 -0 -1 -0 -1 -0 0 1 1 1 1 0
0 0 0 0 0 0 0 0 -0 0 -1 -2 -3 -2 -1 -1 -1 -1 -0 -0 -0 1 -1 -0 -1 -1 -0 1 1 1 1 1 1
0 -0 0 0 0 1 1 0 0 -0 1 -1 -0 -1 -1 -1 -1 -0 0 -0 0 0 1 0 1 0 1 1 1 1 1 1 1
0 0 0 0 0 1 1 1 1 1 2 1 1 1 -1 0 -0 -0 1 1 1 1 1 1 1 1 1 1 2 1 1 1 2
0 0 0 0 0 1 1 1 1 2 2 1 2 1 2 1 1 -0 0 1 1 2 1 2 2 1 1 1 1 1 1 1 1
0 0 0 0 1 1 1 3 1 2 3 2 2 3 3 2 2 1 1 1 1 2 3 3 2 2 2 1 1 0 0 0 1
0 0 0 0 0 2 2 4 2 3 3 4 3 4 3 3 3 2 1 2 2 4 4 3 2 2 1 1 1 0 0 0 0
0 0 0 0 0 0 2 2 4 3 3 6 4 4 6 6 5 4 3 3 4 5 4 2 2 1 1 1 1 1 0 0 0
1 0 0 0 0 0 1 2 6 7 5 4 7 8 13 12 9 9 7 6 8 6 4 2 2 1 1 1 1 0 0 0 0
2 4 6 5 1 1 2 3 7 7 7 7 13 18 17 17 16 14 12 8 7 5 3 3 2 1 1 2 2 1 0 0 0
1 1 3 6 12 19 21 12 10 14 25 28 28 20 20 19 18 13 8 6 5 4 3 2 2 2 1 1 1 1 0 0 0
5 6 7 8 10 11 13 17 28 29 34 31 30 21 20 19 15 9 6 4 4 3 2 2 1 2 1 1 1 1 0 0 0
7 6 10 9 11 17 15 15 15 16 23 28 25 23 14 9 6 1 0 0 1 1 0 1 1 1 3 2 1 0 0 0 0
6 7 6 8 12 14 15 18 16 17 17 14 8 5 4 1 0 0 0 0 0 0 0 0 0 0 0 0 0 0 0 0 0
4 3 4 5 6 7 11 11 10 9 6 4 3 3 1 0 0 0 0 0 0 0 0 0 0 0 0 0 0 0 0 0 0
Wind_Speed_500mb
55 60 94 100 104 107 111 108 103 100 98 91 83 71 66 73 74 64 62 56 42 44 42 32 30 31 40 35 33 30 24 21 18
61 64 59 96 109 106 111 113 111 105 100 95 88 80 69 71 76 81 69 70 66 49 43 38 33 36 32 30 35 35 29 24 23
29 42 70 73 103 114 110 112 114 108 103 98 92 85 77 69 74 80 79 72 73 68 56 54 41 51 49 40 37 39 37 31 28
66 74 83 95 109 116 118 108 111 113 111 101 96 88 81 77 72 78 80 80 80 69 61 57 60 56 54 52 49 46 44 36 31
71 101 109 115 100 108 111 113 108 115 113 110 100 91 85 80 78 77 82 83 82 80 79 76 68 64 64 59 56 51 53 45 37
54 78 69 100 93 99 109 114 111 112 115 110 103 97 92 85 83 82 85 83 83 82 79 86 83 80 77 75 70 59 57 54 42
31 38 55 41 104 102 111 118 115 112 116 108 103 101 96 93 90 88 88 87 83 82 83 84 87 87 86 81 77 69 62 59 50
46 49 55 44 81 93 111 113 110 104 112 116 105 100 97 95 91 90 89 90 89 80 84 86 86 87 87 86 80 75 67 60 57
28 30 38 51 57 103 104 107 98 97 109 115 110 101 97 92 89 91 92 91 90 85 81 83 88 89 87 84 78 76 67 63 66
68 64 40 51 51 58 80 77 72 91 108 114 112 108 100 93 89 90 92 92 89 89 83 78 82 83 78 74 71 72 63 64 68
23 42 53 71 56 60 46 49 56 70 96 115 113 110 107 100 91 91 83 86 89 86 77 76 73 73 67 63 64 60 56 57 60
46 48 31 20 28 48 49 52 45 59 81 108 113 113 109 104 96 92 86 87 85 80 74 73 69 64 58 55 53 47 44 53 61
15 48 40 56 48 43 39 47 55 62 77 101 112 111 111 107 101 98 92 88 86 75 71 64 56 48 49 43 45 39 40 42 53
12 17 49 54 67 53 46 45 61 68 79 84 95 107 103 102 93 94 93 89 82 71 63 52 55 54 48 23 45 37 40 48 51
10 11 6 8 30 51 61 63 52 63 77 72 87 96 74 81 82 87 89 82 71 58 53 53 54 50 51 38 32 37 42 45 43
15 8 7 10 12 21 29 49 56 72 79 82 80 76 74 73 75 79 72 67 64 48 56 53 47 40 32 27 27 33 38 40 40
16 11 5 6 19 25 32 37 50 64 73 72 70 79 76 76 72 64 58 51 47 50 50 46 43 36 25 25 32 38 34 34 37
21 14 19 25 34 38 42 46 51 61 70 70 76 78 74 72 68 62 57 55 46 42 39 38 38 36 27 28 34 32 25 26 26
28 21 15 21 29 38 45 48 54 62 64 62 59 57 52 56 54 57 59 55 52 44 34 38 35 31 28 34 30 27 22 21 20
23 24 24 22 31 35 39 42 43 40 44 45 36 40 47 55 60 53 49 51 50 52 41 33 37 29 26 25 26 22 22 21 15
Wind_Direction_500mb
198 196 192 196 200 204 203 205 207 211 212 214 216 218 216 214 211 211 209 211 213 222 232 234 221 226 225 219 223 232 231 232 230
217 209 208 197 202 205 207 205 208 211 215 214 216 218 217 217 216 215 215 210 214 222 228 242 234 232 238 228 228 232 233 226 227
207 214 207 190 205 204 210 211 209 210 218 219 217 218 220 221 221 218 220 219 220 219 219 225 228 234 236 241 238 232 225 224 221
183 210 224 208 209 204 208 210 209 208 213 217 218 217 219 224 225 221 221 223 225 223 215 220 223 233 236 238 244 238 228 222 227
194 197 214 213 201 205 198 206 206 208 211 215 221 221 221 224 228 226 225 224 226 226 222 224 228 231 237 240 241 238 230 225 227
216 213 210 210 202 197 197 202 205 206 210 216 219 221 222 225 227 226 229 227 228 227 225 225 229 233 237 242 244 242 237 230 230
239 266 211 186 195 194 198 200 205 206 210 214 217 220 223 225 227 228 229 232 230 230 230 228 231 236 240 244 246 246 244 233 233
211 249 194 170 184 185 197 201 206 212 212 210 216 217 221 225 228 229 230 231 236 231 231 234 237 239 242 245 247 249 244 238 235
201 218 174 183 167 191 195 201 205 211 214 212 211 218 222 223 226 228 229 231 233 236 233 232 237 238 241 245 248 247 249 242 236
190 227 215 191 203 186 187 200 213 219 218 214 212 216 220 222 225 226 228 231 233 234 234 234 236 239 240 245 249 251 253 246 238
248 230 228 236 205 208 208 209 209 217 219 214 215 218 218 220 224 224 226 229 231 231 232 234 234 237 244 250 253 254 252 247 241
210 232 264 205 214 201 213 213 214 214 212 215 213 216 219 222 222 223 223 225 226 226 227 227 233 242 244 251 253 254 246 239 241
211 209 209 203 239 251 230 219 218 212 212 210 212 216 220 220 222 223 223 221 221 219 224 226 233 237 241 249 260 257 249 243 237
303 249 226 212 231 238 241 224 215 212 212 212 220 217 217 217 220 221 220 216 216 215 219 220 228 224 228 244 246 243 243 241 243
97 119 132 120 224 235 234 236 225 218 220 223 214 211 209 209 212 211 210 208 206 220 221 219 214 221 226 228 226 238 243 247 252
45 35 130 125 149 193 214 220 225 224 221 216 201 198 202 200 196 197 193 196 210 205 202 206 212 215 222 234 241 238 239 239 244
78 79 15 173 178 187 195 210 207 213 199 194 186 186 187 183 181 177 185 196 194 185 191 201 205 203 211 221 229 230 238 241 243
104 116 127 160 177 174 172 181 185 183 185 184 176 175 177 175 179 184 181 179 179 186 192 197 205 194 190 211 228 237 220 220 226
110 115 142 154 154 161 160 168 167 167 170 182 187 195 199 195 183 180 180 183 175 173 183 182 189 205 199 205 215 210 197 208 212
114 122 136 145 150 153 160 167 175 171 180 191 191 195 188 179 176 180 178 178 178 171 168 185 184 183 203 188 202 197 199 202 203
Wind_Speed_850mb
55 60 94 100 104 107 111 108 103 100 98 91 83 71 66 73 74 64 62 56 42 44 42 32 30 31 40 35 33 30 24 21 18
61 64 59 96 109 106 111 113 111 105 100 95 88 80 69 71 76 81 69 70 66 49 43 38 33 36 32 30 35 35 29 24 23
29 42 70 73 103 114 110 112 114 108 103 98 92 85 77 69 74 80 79 72 73 68 56 54 41 51 49 40 37 39 37 31 28
66 74 83 95 109 116 118 108 111 113 111 101 96 88 81 77 72 78 80 80 80 69 61 57 60 56 54 52 49 46 44 36 31
71 101 109 115 100 108 111 113 108 115 113 110 100 91 85 80 78 77 82 83 82 80 79 76 68 64 64 59 56 51 53 45 37
54 78 69 100 93 99 109 114 111 112 115 110 103 97 92 85 83 82 85 83 83 82 79 86 83 80 77 75 70 59 57 54 42
31 38 55 41 104 102 111 118 115 112 116 108 103 101 96 93 90 88 88 87 83 82 83 84 87 87 86 81 77 69 62 59 50
46 49 55 44 81 93 111 113 110 104 112 116 105 100 97 95 91 90 89 90 89 80 84 86 86 87 87 86 80 75 67 60 57
28 30 38 51 57 103 104 107 98 97 109 115 110 101 97 92 89 91 92 91 90 85 81 83 88 89 87 84 78 76 67 63 66
68 64 40 51 51 58 80 77 72 91 108 114 112 108 100 93 89 90 92 92 89 89 83 78 82 83 78 74 71 72 63 64 68
23 42 53 71 56 60 46 49 56 70 96 115 113 110 107 100 91 91 83 86 89 86 77 76 73 73 67 63 64 60 56 57 60
46 48 31 20 28 48 49 52 45 59 81 108 113 113 109 104 96 92 86 87 85 80 74 73 69 64 58 55 53 47 44 53 61
15 48 40 56 48 43 39 47 55 62 77 101 112 111 111 107 101 98 92 88 86 75 71 64 56 48 49 43 45 39 40 42 53
12 17 49 54 67 53 46 45 61 68 79 84 95 107 103 102 93 94 93 89 82 71 63 52 55 54 48 23 45 37 40 48 51
10 11 6 8 30 51 61 63 52 63 77 72 87 96 74 81 82 87 89 82 71 58 53 53 54 50 51 38 32 37 42 45 43
15 8 7 10 12 21 29 49 56 72 79 82 80 76 74 73 75 79 72 67 64 48 56 53 47 40 32 27 27 33 38 40 40
16 11 5 6 19 25 32 37 50 64 73 72 70 79 76 76 72 64 58 51 47 50 50 46 43 36 25 25 32 38 34 34 37
21 14 19 25 34 38 42 46 51 61 70 70 76 78 74 72 68 62 57 55 46 42 39 38 38 36 27 28 34 32 25 26 26
28 21 15 21 29 38 45 48 54 62 64 62 59 57 52 56 54 57 59 55 52 44 34 38 35 31 28 34 30 27 22 21 20
23 24 24 22 31 35 39 42 43 40 44 45 36 40 47 55 60 53 49 51 50 52 41 33 37 29 26 25 26 22 22 21 15
Wind_Direction_850mb
198 196 192 196 200 204 203 205 207 211 212 214 216 218 216 214 211 211 209 211 213 222 232 234 221 226 225 219 223 232 231 232 230
217 209 208 197 202 205 207 205 208 211 215 214 216 218 217 217 216 215 215 210 214 222 228 242 234 232 238 228 228 232 233 226 227
207 214 207 190 205 204 210 211 209 210 218 219 217 218 220 221 221 218 220 219 220 219 219 225 228 234 236 241 238 232 225 224 221
183 210 224 208 209 204 208 210 209 208 213 217 218 217 219 224 225 221 221 223 225 223 215 220 223 233 236 238 244 238 228 222 227
194 197 214 213 201 205 198 206 206 208 211 215 221 221 221 224 228 226 225 224 226 226 222 224 228 231 237 240 241 238 230 225 227
216 213 210 210 202 197 197 202 205 206 210 216 219 221 222 225 227 226 229 227 228 227 225 225 229 233 237 242 244 242 237 230 230
239 266 211 186 195 194 198 200 205 206 210 214 217 220 223 225 227 228 229 232 230 230 230 228 231 236 240 244 246 246 244 233 233
211 249 194 170 184 185 197 201 206 212 212 210 216 217 221 225 228 229 230 231 236 231 231 234 237 239 242 245 247 249 244 238 235
201 218 174 183 167 191 195 201 205 211 214 212 211 218 222 223 226 228 229 231 233 236 233 232 237 238 241 245 248 247 249 242 236
190 227 215 191 203 186 187 200 213 219 218 214 212 216 220 222 225 226 228 231 233 234 234 234 236 239 240 245 249 251 253 246 238
248 230 228 236 205 208 208 209 209 217 219 214 215 218 218 220 224 224 226 229 231 231 232 234 234 237 244 250 253 254 252 247 241
210 232 264 205 214 201 213 213 214 214 212 215 213 216 219 222 222 223 223 225 226 226 227 227 233 242 244 251 253 254 246 239 241
211 209 209 203 239 251 230 219 218 212 212 210 212 216 220 220 222 223 223 221 221 219 224 226 233 237 241 249 260 257 249 243 237
303 249 226 212 231 238 241 224 215 212 212 212 220 217 217 217 220 221 220 216 216 215 219 220 228 224 228 244 246 243 243 241 243
97 119 132 120 224 235 234 236 225 218 220 223 214 211 209 209 212 211 210 208 206 220 221 219 214 221 226 228 226 238 243 247 252
45 35 130 125 149 193 214 220 225 224 221 216 201 198 202 200 196 197 193 196 210 205 202 206 212 215 222 234 241 238 239 239 244
78 79 15 173 178 187 195 210 207 213 199 194 186 186 187 183 181 177 185 196 194 185 191 201 205 203 211 221 229 230 238 241 243
104 116 127 160 177 174 172 181 185 183 185 184 176 175 177 175 179 184 181 179 179 186 192 197 205 194 190 211 228 237 220 220 226
110 115 142 154 154 161 160 168 167 167 170 182 187 195 199 195 183 180 180 183 175 173 183 182 189 205 199 205 215 210 197 208 212
114 122 136 145 150 153 160 167 175 171 180 191 191 195 188 179 176 180 178 178 178 171 168 185 184 183 203 188 202 197 199 202 203